Weather History for Long Point, ON

Change the Weather History Date:

Friday, October 11, 2013

  Actual Average Record
Temperature  
Mean Temperature 60 °F -  
Max Temperature 64 °F - - ()
Min Temperature 57 °F - - ()
Degree Days  
Heating Degree Days 4    
Growing Degree Days 10 (Base 50)    
Moisture  
Dew Point 52 °F    
Average Humidity 73    
Maximum Humidity 85    
Minimum Humidity 45    
Precipitation  
Precipitation 0.00 in - - ()
Sea Level Pressure  
Sea Level Pressure 30.10 in    
Wind  
Wind Speed 14 mph ()    
Max Wind Speed 20 mph    
Max Gust Speed -    
T = Trace of Precipitation, MM = Missing Value Source: Averaged Metar Reports

Daily Weather History Graph

Daily Weather History Graph

Search for Another Location

Airport:

Trip Planner

Search our weather history database for the weather conditions in past years. The results will help you decide how hot, cold, wet, or windy it might be!

Date:

Astronomy

Oct. 11, 2013 Rise Set
Actual Time 7:28 AM EDT 6:44 PM EDT
Civil Twilight 7:00 AM EDT 7:12 PM EDT
Nautical Twilight 6:27 AM EDT 7:44 PM EDT
Astronomical Twilight 5:55 AM EDT 8:17 PM EDT
Moon 2:13 PM EDT (10/11) No Moon Set
Length of Visible Light 12h 11m
Length of Day
11h 15m
Waxing Crescent, 47% of the Moon is Illuminated
Oct 11
Waxing Crescent
Oct 11
First Quarter
Oct 18
Full
Oct 26
Last Quarter
Nov 3
New

Hourly Weather History & Observations

Time (EDT) Temp. Dew Point Humidity Pressure Visibility Wind Dir Wind Speed Gust Speed Precip Events Conditions
12:00 AM 60.3 °F 54.3 °F 81% 30.11 in - North 15.0 mph - N/A   Unknown
1:00 AM 59.2 °F 52.7 °F 79% 30.10 in - North 15.0 mph - N/A   Unknown
2:00 AM 59 °F 53 °F 73% 30.09 in - North 16.1 mph - -  
2:00 AM 58.6 °F 52.7 °F 81% 30.09 in - North 16.1 mph - N/A   Unknown
3:00 AM 57.9 °F 51.6 °F 80% 30.09 in - North 16.1 mph - N/A   Unknown
4:00 AM 57.4 °F 51.3 °F 80% 30.09 in - North 18.4 mph - N/A   Unknown
5:00 AM 57.6 °F 52.0 °F 82% 30.09 in - North 13.8 mph - N/A   Unknown
6:00 AM 57.2 °F 51.4 °F 81% 30.09 in - NNE 13.8 mph - N/A   Unknown
7:00 AM 57.0 °F 52.7 °F 85% 30.10 in - NNE 15.0 mph - N/A   Unknown
8:00 AM 58 °F 54 °F 81% 30.11 in - North 12.7 mph - -  
8:00 AM 58.3 °F 53.8 °F 85% 30.11 in - North 12.7 mph - N/A   Unknown
9:00 AM 60.3 °F 52.0 °F 74% 30.12 in - NNE 17.3 mph - N/A   Unknown
10:00 AM 60.1 °F 51.8 °F 74% 30.13 in - NNE 15.0 mph - N/A   Unknown
11:00 AM 60.3 °F 53.6 °F 79% 30.14 in - NNE 13.8 mph - N/A   Unknown
12:00 PM 59.9 °F 53.4 °F 79% 30.14 in - North 15.0 mph - N/A   Unknown
1:00 PM 61.3 °F 48.4 °F 62% 30.12 in - NNE 16.1 mph - N/A   Unknown
2:00 PM 63 °F 47 °F 45% 30.10 in - NNE 12.7 mph - -  
2:00 PM 62.8 °F 46.9 °F 56% 30.10 in - NNE 12.7 mph - N/A   Unknown
3:00 PM 63.9 °F 47.5 °F 55% 30.09 in - North 13.8 mph - N/A   Unknown
4:00 PM 64.6 °F 49.8 °F 59% 30.09 in - NNE 11.5 mph - N/A   Unknown
5:00 PM 64.9 °F 50.4 °F 59% 30.09 in - North 11.5 mph - N/A   Unknown
6:00 PM 64.8 °F 54.3 °F 69% 30.09 in - North 15.0 mph - N/A   Unknown
7:00 PM 63.9 °F 56.5 °F 77% 30.09 in - North 17.3 mph - N/A   Unknown
8:00 PM 62 °F 55 °F 70% 30.09 in - North 19.6 mph - -  
8:00 PM 62.2 °F 54.7 °F 76% 30.09 in - North 19.6 mph - N/A   Unknown
9:00 PM 61.5 °F 52.0 °F 71% 30.09 in - North 18.4 mph - N/A   Unknown
10:00 PM 62.2 °F 54.7 °F 76% 30.09 in - North 17.3 mph - N/A   Unknown
11:00 PM 61.5 °F 55.4 °F 80% 30.09 in - North 17.3 mph - N/A   Unknown